Volver al catálogo

SL-14 DEB

ActivoPO
NORAD 25246·DEBRIS·🇷🇺 Russia

Lanzado Aug 18, 1987 desde Plesetsk Cosmodrome

Loading…

Próximos Pases (próximas 24 horas)

TLE

ActualizadoSource: Space-Track

Época: Sep 14, 2026, 09:33 UTC

1 25246U 87068BP  26257.39825624  .00000742  00000-0  33576-3 0  9999
2 25246  82.2473 233.4469 0079545 121.6009  31.2392 14.19234048469440

Sigue SL-14 DEB en tiempo real con AllMySat

Download on the App Store